Flag for U.S.A. Weather past 2 weeks in Springfield, Missouri, U.S.A.

Now
66 °F

Sunny.


Feels Like: 66 °F
Forecast: 51 / 72 °F
Wind: 5 mph from East

Location: Springfield Regional Airport

Current Time: Sep 22, 2014 at 9:16:32 PM

Latest Report: Sep 22, 2014 at 7:52 PM


Visibility: 10 mi

Pressure: 30.21 "Hg

Humidity: 52%

Dew point: 48 °F

Location of SpringfieldLocation

Historic Weather in Springfield — Graph

°F

Springfield temperature yesterday

Maximum temperature yesterday: 77 °F (at 12:52 PM)
Minimum temperature yesterday: 59 °F (at 11:52 PM)
Average temperature yesterday: 70 °F

Past Weeks' High & Low Weather Summary

 TemperatureHumidityPressure
High90 °F (Sep 9, 2:52 PM)97% (Sep 17, 2:52 AM)30.37 "Hg (Sep 17, 2:52 AM)
Low45 °F (Sep 13, 7:52 AM)32% (Sep 21, 12:52 PM)29.66 "Hg (Sep 10, 4:52 AM)
Average67 °F75%30.05 "Hg
* Reported Sep 7 7:52 PM — Sep 22 7:52 PM, Springfield, Weather by CustomWeather, © 2014

Note: Actual official high and low records may vary slightly from our data, if they occured in-between our weather recording intervals... More about our weather records

Advertising

Springfield weather history for previous 24 hours

 ConditionsComfort  
Time TempWeatherWind HumidityBarometerVisibility
7:52 PM
Sep 22
66 °FSunny.5 mph52%30.21 "Hg10 mi
6:52 PM70 °FSunny.6 mph46%30.20 "Hg10 mi
5:52 PM73 °FSunny.6 mph40%30.20 "Hg10 mi
4:52 PM74 °FSunny.7 mph40%30.21 "Hg10 mi
3:52 PM74 °FSunny.No wind40%30.22 "Hg10 mi
2:52 PM73 °FSunny.8 mph43%30.24 "Hg10 mi
1:52 PM72 °FSunny.3 mph46%30.25 "Hg10 mi
12:52 PM70 °FSunny.5 mph49%30.27 "Hg10 mi
11:52 AM68 °FSunny.No wind53%30.29 "Hg10 mi
10:52 AM66 °FSunny.7 mph56%30.29 "Hg10 mi
9:52 AM62 °FSunny.10 mph67%30.30 "Hg10 mi
8:52 AM59 °FSunny.7 mph75%30.29 "Hg10 mi
7:52 AM52 °FClear.No wind86%30.28 "Hg10 mi
6:52 AM50 °FClear.No wind86%30.26 "Hg10 mi
5:52 AM50 °FClear.No wind86%30.24 "Hg10 mi
4:52 AM50 °FClear.No wind89%30.22 "Hg10 mi
3:52 AM52 °FClear.No wind83%30.21 "Hg8 mi
2:52 AM55 °FClear.No wind80%30.20 "Hg10 mi
1:52 AM55 °FClear.5 mph80%30.20 "Hg10 mi
12:52 AM58 °FClear.5 mph72%30.19 "Hg10 mi
11:52 PM
Sep 21
59 °FClear.6 mph69%30.19 "Hg10 mi
10:52 PM60 °FClear.6 mph69%30.17 "Hg10 mi
9:52 PM60 °FClear.6 mph72%30.16 "Hg10 mi
Weather by CustomWeather, © 2014

See weather overviewHow to use our weather pages